Weather observations for the past three days for
Minot Air Force Base
| Date | Time (cdt) | Wind (mph) | Vis. (mi.) | Weather | Sky Cond. | Temperature (ºF) | Relative Humidity | Wind Chill (°F) | Heat Index (°F) | Pressure | Precipitation (in) | ||||||
|---|---|---|---|---|---|---|---|---|---|---|---|---|---|---|---|---|---|
| Air | Dwpt | 6 hour | altimeter (in) | sea level (mb) | 1 hr | 3 hr | 6 hr | ||||||||||
| Max. | Min. | ||||||||||||||||
| 08 | 04:55 | W 8 | 10.00 | Partly Cloudy | SCT110 | 38.7 | 17.6 | 43% | 34 | 29.68 | 1006.1 | ||||||
| 08 | 03:55 | SW 6 | 10.00 | Partly Cloudy | SCT100 | 40.6 | 16.3 | 37% | 37 | 29.69 | 1006.4 | ||||||
| 08 | 02:55 | SW 8 | 10.00 | Mostly Cloudy | BKN095 | 43.5 | 15.6 | 32% | 39 | 29.71 | 1007.0 | ||||||
| 08 | 01:55 | SW 9 | 10.00 | Partly Cloudy | SCT100 | 36 | 12.7 | 38% | 30 | 29.71 | 1007.3 | ||||||
| 08 | 00:55 | SW 8 | 10.00 | Partly Cloudy | SCT090 | 37.8 | 15.1 | 60.4 | 37.8 | 39% | 32 | 29.71 | 1007.3 | ||||
| 07 | 23:55 | SW 7 | 10.00 | Mostly Cloudy | BKN085 | 43 | 15.8 | 33% | 39 | 29.72 | 1007.6 | ||||||
| 07 | 22:55 | Calm | 10.00 | Mostly Cloudy | SCT095 BKN120 | 40.3 | 12.7 | 32% | 29.73 | 1008.0 | |||||||
| 07 | 21:55 | N 3 | 10.00 | A Few Clouds | FEW160 | 41.9 | 9.5 | 26% | 29.73 | 1008.1 | |||||||
| 07 | 20:55 | N 6 | 10.00 | Mostly Cloudy | BKN120 | 54.5 | 11.8 | 18% | 29.72 | 1007.6 | |||||||
| 07 | 19:55 | N 13 | 10.00 | Mostly Cloudy | BKN090 | 58.6 | 9.5 | 14% | 29.72 | 1007.7 | |||||||
| 07 | 18:55 | N 14 | 10.00 | A Few Clouds | FEW150 | 60.4 | 10.9 | 63 | 56.3 | 14% | 29.72 | 1007.9 | |||||
| 07 | 17:55 | N 17 | 10.00 | Fair | CLR | 61 | 11.5 | 14% | 29.72 | 1007.9 | |||||||
| 07 | 16:55 | NW 10 | 10.00 | A Few Clouds | FEW200 | 60.4 | 10.9 | 14% | 29.73 | 1008.3 | |||||||
| 07 | 15:55 | N 10 G 17 | 10.00 | A Few Clouds | FEW130 | 59.2 | 10 | 14% | 29.75 | 1008.9 | |||||||
| 07 | 14:55 | NW 15 G 18 | 10.00 | A Few Clouds | FEW200 | 58.8 | 12.7 | 16% | 29.76 | 1009.4 | |||||||
| 07 | 13:55 | NW 14 G 20 | 10.00 | Partly Cloudy | SCT200 | 57.4 | 14.2 | 18% | 29.77 | 1009.9 | |||||||
| 07 | 12:55 | NW 10 G 18 | 10.00 | Partly Cloudy | SCT230 | 55.9 | 17.6 | 56.5 | 25.7 | 22% | 29.79 | 1010.5 | |||||
| 07 | 11:55 | N 8 G 20 | 10.00 | A Few Clouds | FEW230 | 54.5 | 17.4 | 23% | 29.8 | 1010.9 | |||||||
| 07 | 10:55 | NW 14 G 18 | 10.00 | A Few Clouds | FEW240 | 52.3 | 19.4 | 27% | 29.81 | 1011.2 | |||||||
| 07 | 09:55 | NW 8 | 10.00 | A Few Clouds | FEW240 | 46.4 | 20.8 | 36% | 43 | 29.83 | 1011.7 | ||||||
| 07 | 08:55 | N 8 | 10.00 | A Few Clouds | FEW230 | 39.7 | 20.7 | 46% | 35 | 29.83 | 1011.7 | ||||||
| 07 | 07:55 | N 7 | 10.00 | Fair | CLR | 35.2 | 20.7 | 55% | 30 | 29.82 | 1011.3 | ||||||
| 07 | 06:55 | W 7 | 10.00 | Fair | CLR | 25.9 | 16 | 27.1 | 21.6 | 66% | 19 | 29.81 | 1011.2 | ||||
| 07 | 05:55 | W 7 | 10.00 | Fair | CLR | 23.5 | 13.8 | 66% | 16 | 29.81 | 1011.3 | ||||||
| 07 | 04:55 | W 9 | 10.00 | Fair | CLR | 22.5 | 12.7 | 66% | 13 | 29.82 | 1011.7 | ||||||
| 07 | 03:55 | W 8 | 10.00 | Fair | CLR | 26.6 | 15.3 | 62% | 19 | 29.82 | 1011.6 | ||||||
| 07 | 02:55 | W 8 | 10.00 | Fair | CLR | 23 | 11.5 | 61% | 15 | 29.82 | 1011.7 | ||||||
| 07 | 01:55 | W 6 | 10.00 | Fair | CLR | 22.5 | 10.6 | 60% | 16 | 29.82 | 1011.8 | ||||||
| 07 | 00:55 | W 5 | 10.00 | Fair | CLR | 23.2 | 10.9 | 51.6 | 22.5 | 59% | 18 | 29.82 | 1011.9 | ||||
| 06 | 23:55 | Calm | 10.00 | Fair | CLR | 23.4 | 9.1 | 54% | 29.83 | 1012.3 | |||||||
| 06 | 21:55 | Calm | 10.00 | Fair | CLR | 38.3 | 17.8 | 43% | 29.84 | 1012.3 | |||||||
| 06 | 20:55 | NE 6 | 10.00 | Fair | CLR | 46.8 | 19.2 | 33% | 44 | 29.84 | 1012.1 | ||||||
| 06 | 19:55 | W 7 | 10.00 | Partly Cloudy | SCT100 | 50 | 18.1 | 28% | 48 | 29.84 | 1012.0 | ||||||
| 06 | 18:55 | NW 15 | 10.00 | Mostly Cloudy | BKN090 | 51.3 | 18.3 | 53.2 | 44.8 | 27% | 29.86 | 1012.8 | |||||
| 06 | 17:55 | NW 14 G 24 | 10.00 | Mostly Cloudy | BKN085 | 50.4 | 17.6 | 27% | 29.86 | 1012.9 | |||||||
| 06 | 16:55 | NW 12 G 18 | 10.00 | Mostly Cloudy | FEW070 BKN085 | 52 | 17.2 | 25% | 29.88 | 1013.7 | |||||||
| 06 | 15:55 | NW 8 | 10.00 | Mostly Cloudy | BKN065 | 51.6 | 17.8 | 26% | 29.9 | 1014.3 | |||||||
| 06 | 14:55 | W 9 G 17 | 10.00 | Partly Cloudy | SCT060 | 50.5 | 19.4 | 29% | 29.92 | 1015.0 | |||||||
| 06 | 13:55 | NW 7 | 10.00 | Mostly Cloudy | BKN055 | 48 | 18.9 | 31% | 45 | 29.94 | 1015.9 | ||||||
| 06 | 12:55 | NW 9 | 10.00 | Mostly Cloudy | BKN050 | 46 | 20.5 | 46.6 | 30.2 | 36% | 42 | 29.96 | 1016.8 | ||||
| 06 | 11:55 | NW 13 | 10.00 | Mostly Cloudy | BKN050 | 45.3 | 19.9 | 36% | 40 | 29.99 | 1017.7 | ||||||
| 06 | 10:55 | NW 9 | 10.00 | Mostly Cloudy | BKN045 | 41.2 | 20.3 | 43% | 36 | 30 | 1017.9 | ||||||
| 06 | 09:55 | W 8 | 10.00 | Mostly Cloudy | FEW040 BKN060 | 40.1 | 21 | 46% | 35 | 30.01 | 1018.2 | ||||||
| 06 | 08:55 | NW 6 | 10.00 | Overcast | OVC055 | 37 | 21 | 52% | 33 | 30.01 | 1018.2 | ||||||
| 06 | 07:55 | W 6 | 10.00 | Overcast | OVC055 | 34.5 | 21.2 | 58% | 30 | 30.01 | 1018.2 | ||||||
| 06 | 06:55 | W 6 | 10.00 | Overcast | OVC055 | 30.2 | 19.4 | 30.4 | 18 | 64% | 25 | 30.01 | 1018.3 | ||||
| 06 | 05:55 | W 3 | 10.00 | Mostly Cloudy | BKN048 | 27.7 | 19.6 | 72% | 30 | 1018.1 | |||||||
| 06 | 04:55 | NW 3 | 10.00 | Mostly Cloudy | BKN050 | 24.6 | 18.1 | 76% | 30.01 | 1018.4 | |||||||
| 06 | 03:55 | W 7 | 10.00 | Mostly Cloudy | BKN050 | 25.9 | 17.8 | 71% | 19 | 30 | 1018.1 | ||||||
| 06 | 02:55 | W 7 | 10.00 | Mostly Cloudy | BKN050 | 26.4 | 17.6 | 69% | 20 | 30 | 1018.1 | ||||||
| 06 | 01:55 | W 6 | 10.00 | Mostly Cloudy | BKN048 | 21.6 | 14.2 | 73% | 15 | 30.01 | 1018.7 | ||||||
| 06 | 00:55 | W 7 | 10.00 | Partly Cloudy | SCT050 | 19 | 10.6 | 41.4 | 19 | 69% | 11 | 30 | 1018.4 | ||||
| 05 | 23:55 | NW 5 | 10.00 | Mostly Cloudy | BKN050 | 23.7 | 13.3 | 64% | 19 | 30 | 1018.3 | ||||||
| 05 | 22:55 | Calm | 10.00 | Partly Cloudy | SCT055 | 32.4 | 17.6 | 54% | 30 | 1018.0 | |||||||
| 05 | 21:55 | NE 6 | 10.00 | Fair | CLR | 33.6 | 17.8 | 52% | 29 | 29.98 | 1017.3 | ||||||
| 05 | 20:55 | N 7 | 10.00 | Partly Cloudy | SCT060 | 36.5 | 17.2 | 46% | 32 | 29.96 | 1016.5 | ||||||
| 05 | 19:55 | N 12 | 10.00 | Mostly Cloudy | BKN060 | 39.7 | 16.9 | 40% | 33 | 29.95 | 1016.1 | ||||||
| 05 | 18:55 | N 12 | 10.00 | Overcast | OVC055 | 40.8 | 17.2 | 41.9 | 38.3 | 38% | 35 | 29.94 | 1015.9 | ||||
| 05 | 17:55 | N 18 | 10.00 | Overcast | OVC050 | 40.6 | 17.1 | 38% | 32 | 29.93 | 1015.7 | ||||||
| 05 | 16:55 | N 15 G 23 | 10.00 | Mostly Cloudy | BKN055 | 41.4 | 17.1 | 37% | 34 | 29.93 | 1015.5 | ||||||
| 05 | 15:55 | NW 17 G 23 | 10.00 | Overcast | OVC050 | 41.4 | 15.8 | 35% | 34 | 29.93 | 1015.3 | ||||||
| 05 | 14:55 | N 15 | 10.00 | Overcast | OVC049 | 40.1 | 16 | 37% | 33 | 29.94 | 1015.7 | ||||||
| 05 | 13:55 | N 17 G 25 | 10.00 | Overcast | BKN047 OVC190 | 39.4 | 18.1 | 42% | 31 | 29.93 | 1015.5 | ||||||
| 05 | 12:55 | NW 17 | 10.00 | Overcast | OVC042 | 38.1 | 17.6 | 38.5 | 30 | 43% | 29 | 29.93 | 1015.6 | ||||
| 05 | 11:55 | N 20 | 9.00 | Light Rain | BKN038 OVC046 | 36.7 | 19.8 | 50% | 27 | 29.93 | 1015.6 | ||||||
| 05 | 10:55 | NW 22 G 28 | 10.00 | Mostly Cloudy and Breezy | BKN040 BKN047 | 37.4 | 19.6 | 49% | 27 | 29.91 | 1014.8 | ||||||
| 05 | 09:55 | N 20 | 10.00 | Overcast | SCT037 BKN049 OVC060 | 37.4 | 19.6 | 49% | 28 | 29.91 | 1014.8 | ||||||
| 05 | 08:55 | N 15 | 10.00 | Mostly Cloudy | BKN065 | 36 | 19 | 50% | 27 | 29.9 | 1014.4 | ||||||
| 05 | 07:55 | NW 14 | 10.00 | Mostly Cloudy | BKN060 | 34.9 | 17.6 | 49% | 26 | 29.89 | 1014.0 | ||||||
| 05 | 06:55 | NW 9 | 10.00 | Mostly Cloudy | BKN060 | 29.8 | 18 | 36.7 | 26.8 | 61% | 22 | 29.87 | 1013.4 | ||||
| 05 | 05:55 | NW 9 | 10.00 | Partly Cloudy | SCT070 | 26.8 | 17.6 | 68% | 18 | 29.86 | 1013.2 | ||||||
| Date | Time (cdt) | Wind (mph) | Vis. (mi.) | Weather | Sky Cond. | Air | Dwpt | Max. | Min. | Relative Humidity | Wind Chill (°F) | Heat Index (°F) | altimeter (in) | sea level (mb) | 1 hr | 3 hr | 6 hr |
| 6 hour | |||||||||||||||||
| Temperature (ºF) | Pressure | Precipitation (in) | |||||||||||||||